,,PressureMeas_1m,,PRMeasQMR101_1,,RHStat155_1m_1,,SRMeasQMS101R_1m,,TAStat155_1m_1,,GenWind_1,,GenWind_1,
2018-08-23, 00:00:07,VALID,919.353,VALID,0.0,VALID,88.416,VALID,0.032,VALID,19.729,INVALID,360.0,VALID,0.0,
2018-08-23, 00:01:07,VALID,919.313,VALID,0.0,VALID,88.699,VALID,0.047,VALID,19.733,INVALID,360.0,VALID,0.0,
2018-08-23, 00:02:07,VALID,919.32,VALID,0.0,VALID,88.93,VALID,0.04,VALID,19.72,INVALID,360.0,VALID,0.0,
2018-08-23, 00:03:07,VALID,919.263,VALID,0.0,VALID,88.366,VALID,0.065,VALID,19.698,INVALID,360.0,VALID,0.0,
2018-08-23, 00:04:07,VALID,919.255,VALID,0.0,VALID,88.546,VALID,0.032,VALID,19.698,INVALID,360.0,VALID,0.0,
2018-08-23, 00:05:07,VALID,919.248,VALID,0.0,VALID,88.836,VALID,0.046,VALID,19.682,INVALID,360.0,VALID,0.0,
2018-08-23, 00:06:07,VALID,919.236,VALID,0.0,VALID,89.105,VALID,0.035,VALID,19.67,INVALID,360.0,VALID,0.0,
2018-08-23, 00:07:07,VALID,919.191,VALID,0.0,VALID,88.129,VALID,0.049,VALID,19.681,INVALID,360.0,VALID,0.0,
2018-08-23, 00:08:07,VALID,919.19,VALID,0.0,VALID,87.672,VALID,0.04,VALID,19.709,INVALID,360.0,VALID,0.0,
2018-08-23, 00:09:07,VALID,919.176,VALID,0.0,VALID,87.486,VALID,0.049,VALID,19.769,INVALID,360.0,VALID,0.0,
2018-08-23, 00:10:07,VALID,919.183,VALID,0.0,VALID,88.028,VALID,0.039,VALID,19.76,INVALID,360.0,VALID,0.0,
2018-08-23, 00:11:07,VALID,919.163,VALID,0.0,VALID,87.461,VALID,0.035,VALID,19.731,INVALID,360.0,VALID,0.0,
2018-08-23, 00:12:07,VALID,919.198,VALID,0.0,VALID,87.758,VALID,0.034,VALID,19.759,INVALID,360.0,VALID,0.0,
2018-08-23, 00:13:07,VALID,919.171,VALID,0.0,VALID,87.745,VALID,0.039,VALID,19.758,INVALID,360.0,VALID,0.0,
2018-08-23, 00:14:07,VALID,919.156,VALID,0.0,VALID,88.405,VALID,0.043,VALID,19.736,INVALID,360.0,VALID,0.0,
2018-08-23, 00:15:07,VALID,919.182,VALID,0.0,VALID,88.509,VALID,0.044,VALID,19.711,INVALID,360.0,VALID,0.0,
2018-08-23, 00:16:07,VALID,919.183,VALID,0.0,VALID,88.485,VALID,0.042,VALID,19.698,INVALID,360.0,VALID,0.0,
2018-08-23, 00:17:07,VALID,919.156,VALID,0.0,VALID,89.112,VALID,0.027,VALID,19.66,INVALID,360.0,VALID,0.0,
2018-08-23, 00:18:07,VALID,919.153,VALID,0.0,VALID,89.427,VALID,0.058,VALID,19.604,INVALID,360.0,VALID,0.0,
2018-08-23, 00:19:07,VALID,919.128,VALID,0.0,VALID,89.067,VALID,0.051,VALID,19.583,INVALID,360.0,VALID,0.0,
2018-08-23, 00:20:07,VALID,919.085,VALID,0.0,VALID,88.462,VALID,0.033,VALID,19.61,INVALID,360.0,VALID,0.0,
2018-08-23, 00:21:07,VALID,919.03,VALID,0.0,VALID,88.332,VALID,0.018,VALID,19.651,INVALID,360.0,VALID,0.0,
2018-08-23, 00:22:07,VALID,919.04,VALID,0.0,VALID,87.95,VALID,-0.019,VALID,19.65,INVALID,360.0,VALID,0.0,
2018-08-23, 00:23:07,VALID,918.979,VALID,0.0,VALID,87.518,VALID,-0.013,VALID,19.689,INVALID,360.0,VALID,0.0,
2018-08-23, 00:24:07,VALID,918.973,VALID,0.0,VALID,88.521,VALID,-0.03,VALID,19.741,INVALID,360.0,VALID,0.0,
2018-08-23, 00:25:07,VALID,918.958,VALID,0.0,VALID,88.001,VALID,-0.007,VALID,19.726,INVALID,360.0,VALID,0.0,
2018-08-23, 00:26:07,VALID,918.94,VALID,0.0,VALID,87.652,VALID,-0.003,VALID,19.738,INVALID,360.0,VALID,0.0,
2018-08-23, 00:27:07,VALID,918.934,VALID,0.0,VALID,88.68,VALID,-0.009,VALID,19.704,INVALID,360.0,VALID,0.0,
2018-08-23, 00:28:07,VALID,918.923,VALID,0.0,VALID,88.125,VALID,0.004,VALID,19.643,INVALID,360.0,VALID,0.0,
2018-08-23, 00:29:07,VALID,918.908,VALID,0.0,VALID,88.081,VALID,0.001,VALID,19.658,INVALID,360.0,VALID,0.0,
2018-08-23, 00:30:07,VALID,918.88,VALID,0.0,VALID,88.128,VALID,-0.004,VALID,19.678,INVALID,360.0,VALID,0.0,
2018-08-23, 00:31:07,VALID,918.827,VALID,0.0,VALID,89.093,VALID,0.001,VALID,19.635,INVALID,360.0,VALID,0.0,
2018-08-23, 00:32:07,VALID,918.837,VALID,0.0,VALID,88.536,VALID,-0.003,VALID,19.6,INVALID,360.0,VALID,0.0,
2018-08-23, 00:33:07,VALID,918.805,VALID,0.0,VALID,88.27,VALID,-0.011,VALID,19.612,INVALID,360.0,VALID,0.0,
2018-08-23, 00:34:07,VALID,918.799,VALID,0.0,VALID,87.838,VALID,-0.006,VALID,19.638,INVALID,360.0,VALID,0.0,
2018-08-23, 00:35:07,VALID,918.784,VALID,0.0,VALID,87.435,VALID,-0.001,VALID,19.695,INVALID,360.0,VALID,0.0,
2018-08-23, 00:36:07,VALID,918.78,VALID,0.0,VALID,88.043,VALID,-0.013,VALID,19.718,INVALID,360.0,VALID,0.0,
2018-08-23, 00:37:07,VALID,918.757,VALID,0.0,VALID,87.812,VALID,0.018,VALID,19.715,INVALID,360.0,VALID,0.0,
2018-08-23, 00:38:07,VALID,918.736,VALID,0.0,VALID,88.165,VALID,0.024,VALID,19.71,INVALID,360.0,VALID,0.0,
2018-08-23, 00:39:07,VALID,918.776,VALID,0.0,VALID,87.967,VALID,0.043,VALID,19.702,INVALID,360.0,VALID,0.0,
2018-08-23, 00:40:07,VALID,918.764,VALID,0.0,VALID,88.268,VALID,0.036,VALID,19.696,INVALID,360.0,VALID,0.0,
2018-08-23, 00:41:07,VALID,918.767,VALID,0.0,VALID,88.511,VALID,0.029,VALID,19.677,INVALID,360.0,VALID,0.0,
2018-08-23, 00:42:07,VALID,918.761,VALID,0.0,VALID,88.752,VALID,0.034,VALID,19.659,INVALID,360.0,VALID,0.0,
2018-08-23, 00:43:07,VALID,918.762,VALID,0.0,VALID,89.394,VALID,0.039,VALID,19.591,INVALID,360.0,VALID,0.0,
2018-08-23, 00:44:07,VALID,918.748,VALID,0.0,VALID,89.371,VALID,0.041,VALID,19.536,INVALID,360.0,VALID,0.0,
2018-08-23, 00:45:07,VALID,918.752,VALID,0.0,VALID,89.475,VALID,0.04,VALID,19.534,INVALID,360.0,VALID,0.0,
2018-08-23, 00:46:07,VALID,918.758,VALID,0.0,VALID,89.506,VALID,0.05,VALID,19.532,INVALID,360.0,VALID,0.0,
2018-08-23, 00:47:07,VALID,918.776,VALID,0.0,VALID,89.113,VALID,0.039,VALID,19.548,INVALID,360.0,VALID,0.0,
2018-08-23, 00:48:07,VALID,918.784,VALID,0.0,VALID,88.46,VALID,0.035,VALID,19.635,INVALID,360.0,VALID,0.0,
2018-08-23, 00:49:07,VALID,918.792,VALID,0.0,VALID,88.26,VALID,0.048,VALID,19.676,INVALID,360.0,VALID,0.0,
2018-08-23, 00:50:07,VALID,918.765,VALID,0.0,VALID,88.422,VALID,0.045,VALID,19.701,INVALID,360.0,VALID,0.0,
2018-08-23, 00:51:07,VALID,918.788,VALID,0.0,VALID,88.708,VALID,0.028,VALID,19.697,INVALID,360.0,VALID,0.0,
2018-08-23, 00:52:07,VALID,918.784,VALID,0.0,VALID,88.544,VALID,0.014,VALID,19.692,INVALID,360.0,VALID,0.0,
2018-08-23, 00:53:07,VALID,918.75,VALID,0.0,VALID,88.494,VALID,0.029,VALID,19.684,INVALID,360.0,VALID,0.0,
2018-08-23, 00:54:07,VALID,918.77,VALID,0.0,VALID,88.291,VALID,0.016,VALID,19.702,INVALID,360.0,VALID,0.0,
2018-08-23, 00:55:07,VALID,918.764,VALID,0.0,VALID,88.049,VALID,0.006,VALID,19.75,INVALID,360.0,VALID,0.0,
2018-08-23, 00:56:07,VALID,918.725,VALID,0.0,VALID,88.507,VALID,0.01,VALID,19.75,INVALID,360.0,VALID,0.0,
2018-08-23, 00:57:07,VALID,918.609,VALID,0.0,VALID,88.636,VALID,0.011,VALID,19.708,INVALID,360.0,VALID,0.0,
2018-08-23, 00:58:07,VALID,918.619,VALID,0.0,VALID,88.535,VALID,0.028,VALID,19.683,INVALID,360.0,VALID,0.0,
2018-08-23, 00:59:07,VALID,918.632,VALID,0.0,VALID,88.82,VALID,0.019,VALID,19.661,INVALID,360.0,VALID,0.0,
2018-08-23, 01:00:07,VALID,918.616,VALID,0.0,VALID,89.484,VALID,0.016,VALID,19.613,INVALID,360.0,VALID,0.0,
2018-08-23, 01:01:07,VALID,918.57,VALID,0.0,VALID,88.982,VALID,0.018,VALID,19.601,INVALID,360.0,VALID,0.0,
2018-08-23, 01:02:07,VALID,918.542,VALID,0.0,VALID,88.984,VALID,0.031,VALID,19.612,INVALID,360.0,VALID,0.0,
2018-08-23, 01:03:07,VALID,918.488,VALID,0.0,VALID,89.177,VALID,0.017,VALID,19.618,INVALID,360.0,VALID,0.0,
2018-08-23, 01:04:07,VALID,918.474,VALID,0.0,VALID,89.559,VALID,0.026,VALID,19.555,INVALID,360.0,VALID,0.0,
2018-08-23, 01:05:07,VALID,918.433,VALID,0.0,VALID,89.682,VALID,0.025,VALID,19.534,INVALID,360.0,VALID,0.0,
2018-08-23, 01:06:07,VALID,918.379,VALID,0.0,VALID,89.586,VALID,0.024,VALID,19.532,INVALID,360.0,VALID,0.0,
2018-08-23, 01:07:07,VALID,918.353,VALID,0.0,VALID,89.429,VALID,0.045,VALID,19.557,INVALID,360.0,VALID,0.0,
2018-08-23, 01:08:07,VALID,918.312,VALID,0.0,VALID,89.462,VALID,0.056,VALID,19.573,INVALID,360.0,VALID,0.0,
2018-08-23, 01:09:07,VALID,918.254,VALID,0.0,VALID,89.455,VALID,0.059,VALID,19.588,INVALID,360.0,VALID,0.0,
2018-08-23, 01:10:07,VALID,918.288,VALID,0.0,VALID,89.857,VALID,0.035,VALID,19.561,INVALID,360.0,VALID,0.0,
2018-08-23, 01:11:07,VALID,918.223,VALID,0.0,VALID,89.968,VALID,0.031,VALID,19.567,VALID,260.0,VALID,1.791,
2018-08-23, 01:12:07,VALID,918.216,VALID,0.0,VALID,89.431,VALID,0.04,VALID,19.738,VALID,353.0,VALID,1.555,
2018-08-23, 01:13:07,VALID,918.207,VALID,0.0,VALID,89.02,VALID,0.034,VALID,19.792,VALID,122.0,VALID,0.926,
2018-08-23, 01:14:07,VALID,918.2,VALID,0.0,VALID,88.577,VALID,0.035,VALID,19.836,VALID,263.0,VALID,2.107,
2018-08-23, 01:15:07,VALID,918.206,VALID,0.0,VALID,88.693,VALID,0.056,VALID,19.872,VALID,325.0,VALID,1.372,
2018-08-23, 01:16:07,VALID,918.22,VALID,0.0,VALID,88.483,VALID,0.037,VALID,19.896,VALID,242.0,VALID,1.482,
2018-08-23, 01:17:07,VALID,918.22,VALID,0.0,VALID,88.292,VALID,0.029,VALID,19.891,VALID,245.0,VALID,2.064,
2018-08-23, 01:18:07,VALID,918.248,VALID,0.0,VALID,88.127,VALID,0.036,VALID,19.938,VALID,257.0,VALID,0.735,
2018-08-23, 01:19:07,VALID,918.262,VALID,0.0,VALID,88.488,VALID,0.038,VALID,19.922,VALID,82.0,VALID,0.602,
2018-08-23, 01:20:07,VALID,918.284,VALID,0.0,VALID,89.155,VALID,0.044,VALID,19.883,VALID,25.0,VALID,0.468,
2018-08-23, 01:21:07,VALID,918.311,VALID,0.0,VALID,89.167,VALID,0.009,VALID,19.836,VALID,154.0,VALID,0.209,
2018-08-23, 01:22:07,VALID,918.314,VALID,0.0,VALID,89.128,VALID,-0.02,VALID,19.823,VALID,139.0,VALID,0.416,
2018-08-23, 01:23:07,VALID,918.31,VALID,0.0,VALID,89.577,VALID,-0.019,VALID,19.794,VALID,107.0,VALID,1.275,
2018-08-23, 01:24:07,VALID,918.325,VALID,0.0,VALID,89.496,VALID,0.003,VALID,19.758,VALID,221.0,VALID,0.88,
2018-08-23, 01:25:07,VALID,918.323,VALID,0.0,VALID,89.318,VALID,-0.009,VALID,19.787,VALID,151.0,VALID,0.594,
2018-08-23, 01:26:07,VALID,918.295,VALID,0.0,VALID,89.631,VALID,-0.003,VALID,19.79,VALID,40.0,VALID,1.277,
2018-08-23, 01:27:07,VALID,918.318,VALID,0.0,VALID,89.655,VALID,-0.022,VALID,19.772,VALID,94.0,VALID,0.815,
2018-08-23, 01:28:07,VALID,918.314,VALID,0.0,VALID,89.693,VALID,-0.031,VALID,19.789,VALID,200.0,VALID,0.642,
2018-08-23, 01:29:07,VALID,918.304,VALID,0.0,VALID,89.606,VALID,-0.012,VALID,19.796,VALID,283.0,VALID,0.739,
2018-08-23, 01:30:07,VALID,918.287,VALID,0.0,VALID,89.777,VALID,-0.005,VALID,19.803,VALID,208.0,VALID,0.273,
2018-08-23, 01:31:07,VALID,918.315,VALID,0.0,VALID,89.754,VALID,-0.024,VALID,19.788,VALID,224.0,VALID,0.832,
2018-08-23, 01:32:07,VALID,918.279,VALID,0.0,VALID,90.267,VALID,-0.012,VALID,19.74,VALID,16.0,VALID,0.997,
2018-08-23, 01:33:07,VALID,918.317,VALID,0.0,VALID,90.45,VALID,-0.018,VALID,19.701,VALID,165.0,VALID,1.389,
2018-08-23, 01:34:07,VALID,918.312,VALID,0.0,VALID,90.567,VALID,-0.013,VALID,19.707,VALID,230.0,VALID,1.003,
2018-08-23, 01:35:07,VALID,918.338,VALID,0.0,VALID,90.484,VALID,0.008,VALID,19.72,VALID,135.0,VALID,0.469,
2018-08-23, 01:36:07,VALID,918.337,VALID,0.0,VALID,90.667,VALID,-0.012,VALID,19.716,VALID,56.0,VALID,0.977,
2018-08-23, 01:37:07,VALID,918.337,VALID,0.0,VALID,90.726,VALID,-0.051,VALID,19.698,VALID,41.0,VALID,0.644,
2018-08-23, 01:38:07,VALID,918.299,VALID,0.0,VALID,90.886,VALID,-0.036,VALID,19.693,VALID,344.0,VALID,0.727,
2018-08-23, 01:39:07,VALID,918.336,VALID,0.0,VALID,90.992,VALID,-0.034,VALID,19.702,INVALID,360.0,VALID,0.43,
2018-08-23, 01:40:06,VALID,918.337,VALID,0.0,VALID,91.149,VALID,-0.047,VALID,19.703,VALID,139.0,VALID,0.395,
2018-08-23, 01:41:06,VALID,918.324,VALID,0.0,VALID,91.164,VALID,-0.049,VALID,19.694,VALID,66.0,VALID,1.56,
2018-08-23, 01:42:06,VALID,918.364,VALID,0.0,VALID,91.154,VALID,-0.042,VALID,19.71,VALID,223.0,VALID,1.067,
2018-08-23, 01:43:06,VALID,918.372,VALID,0.0,VALID,90.982,VALID,-0.038,VALID,19.739,VALID,245.0,VALID,1.058,
2018-08-23, 01:44:06,VALID,918.388,VALID,0.0,VALID,91.013,VALID,-0.02,VALID,19.759,VALID,269.0,VALID,1.035,
2018-08-23, 01:45:06,VALID,918.406,VALID,0.0,VALID,91.101,VALID,-0.036,VALID,19.802,VALID,330.0,VALID,0.922,
2018-08-23, 01:46:06,VALID,918.39,VALID,0.0,VALID,90.873,VALID,-0.042,VALID,19.826,VALID,259.0,VALID,1.218,
2018-08-23, 01:47:06,VALID,918.399,VALID,0.0,VALID,90.709,VALID,-0.051,VALID,19.873,VALID,203.0,VALID,0.435,
2018-08-23, 01:48:06,VALID,918.428,VALID,0.0,VALID,90.731,VALID,-0.039,VALID,19.878,VALID,24.0,VALID,1.043,
2018-08-23, 01:49:06,VALID,918.434,VALID,0.0,VALID,90.888,VALID,-0.034,VALID,19.867,VALID,303.0,VALID,0.512,
2018-08-23, 01:50:06,VALID,918.402,VALID,0.0,VALID,90.778,VALID,-0.037,VALID,19.847,VALID,31.0,VALID,0.702,
2018-08-23, 01:51:06,VALID,918.395,VALID,0.0,VALID,90.898,VALID,-0.029,VALID,19.852,VALID,261.0,VALID,1.947,
2018-08-23, 01:52:06,VALID,918.426,VALID,0.0,VALID,91.199,VALID,0.01,VALID,19.838,VALID,14.0,VALID,0.971,
2018-08-23, 01:53:06,VALID,918.42,VALID,0.0,VALID,91.225,VALID,0.011,VALID,19.812,VALID,84.0,VALID,1.405,
2018-08-23, 01:54:06,VALID,918.434,VALID,0.0,VALID,91.379,VALID,0.016,VALID,19.803,VALID,146.0,VALID,1.87,
2018-08-23, 01:55:06,VALID,918.428,VALID,0.0,VALID,91.163,VALID,0.03,VALID,19.798,VALID,313.0,VALID,1.942,
2018-08-23, 01:56:06,VALID,918.487,VALID,0.0,VALID,91.035,VALID,0.002,VALID,19.851,VALID,318.0,VALID,1.125,
2018-08-23, 01:57:06,VALID,918.45,VALID,0.0,VALID,90.72,VALID,0.016,VALID,19.885,VALID,290.0,VALID,0.884,
2018-08-23, 01:58:06,VALID,918.476,VALID,0.0,VALID,90.927,VALID,0.016,VALID,19.892,VALID,99.0,VALID,0.439,
2018-08-23, 01:59:06,VALID,918.506,VALID,0.0,VALID,91.046,VALID,0.024,VALID,19.866,VALID,142.0,VALID,0.834,
2018-08-23, 02:00:06,VALID,918.487,VALID,0.0,VALID,91.295,VALID,0.015,VALID,19.824,VALID,159.0,VALID,0.425,
2018-08-23, 02:01:06,VALID,918.488,VALID,0.0,VALID,91.419,VALID,0.022,VALID,19.789,VALID,122.0,VALID,0.597,
2018-08-23, 02:02:06,VALID,918.461,VALID,0.0,VALID,91.218,VALID,0.021,VALID,19.796,VALID,244.0,VALID,1.256,
2018-08-23, 02:03:06,VALID,918.44,VALID,0.0,VALID,91.327,VALID,0.002,VALID,19.806,VALID,51.0,VALID,0.875,
2018-08-23, 02:04:06,VALID,918.413,VALID,0.0,VALID,91.236,VALID,0.009,VALID,19.803,VALID,54.0,VALID,1.1,
2018-08-23, 02:05:06,VALID,918.373,VALID,0.0,VALID,91.275,VALID,0.017,VALID,19.811,VALID,108.0,VALID,1.342,
2018-08-23, 02:06:06,VALID,918.327,VALID,0.0,VALID,90.742,VALID,0.023,VALID,19.839,VALID,182.0,VALID,1.29,
2018-08-23, 02:07:06,VALID,918.281,VALID,0.0,VALID,90.792,VALID,0.07,VALID,19.868,VALID,306.0,VALID,1.623,
2018-08-23, 02:08:06,VALID,918.187,VALID,0.0,VALID,91.017,VALID,0.062,VALID,19.87,VALID,5.0,VALID,2.936,
2018-08-23, 02:09:06,VALID,918.167,VALID,0.0,VALID,90.788,VALID,0.073,VALID,19.883,VALID,29.0,VALID,1.029,
2018-08-23, 02:10:06,VALID,918.188,VALID,0.0,VALID,90.698,VALID,0.058,VALID,19.876,VALID,98.0,VALID,0.75,
2018-08-23, 02:11:06,VALID,918.145,VALID,0.0,VALID,90.499,VALID,0.071,VALID,19.886,VALID,334.0,VALID,2.516,
2018-08-23, 02:12:06,VALID,918.058,VALID,0.0,VALID,90.3,VALID,0.067,VALID,19.945,VALID,10.0,VALID,1.967,
2018-08-23, 02:13:06,VALID,918.028,VALID,0.0,VALID,90.786,VALID,0.069,VALID,19.921,VALID,304.0,VALID,1.215,
2018-08-23, 02:14:06,VALID,917.982,VALID,0.0,VALID,90.901,VALID,0.052,VALID,19.875,VALID,353.0,VALID,1.496,
2018-08-23, 02:15:06,VALID,918.029,VALID,0.0,VALID,91.122,VALID,0.052,VALID,19.839,VALID,118.0,VALID,0.84,
2018-08-23, 02:16:06,VALID,918.039,VALID,0.0,VALID,91.185,VALID,0.068,VALID,19.826,VALID,25.0,VALID,1.139,
2018-08-23, 02:17:06,VALID,918.022,VALID,0.0,VALID,91.474,VALID,0.078,VALID,19.804,VALID,24.0,VALID,1.055,
2018-08-23, 02:18:06,VALID,918.026,VALID,0.0,VALID,91.592,VALID,0.083,VALID,19.781,INVALID,360.0,VALID,0.022,
2018-08-23, 02:19:06,VALID,917.997,VALID,0.0,VALID,91.654,VALID,0.064,VALID,19.762,INVALID,360.0,VALID,0.0,
2018-08-23, 02:20:06,VALID,917.921,VALID,0.0,VALID,91.838,VALID,0.063,VALID,19.734,INVALID,360.0,VALID,1.446,
2018-08-23, 02:21:06,VALID,917.878,VALID,0.0,VALID,91.823,VALID,0.016,VALID,19.702,VALID,349.0,VALID,1.519,
2018-08-23, 02:22:06,VALID,917.845,VALID,0.0,VALID,91.99,VALID,-0.013,VALID,19.708,VALID,58.0,VALID,1.243,
2018-08-23, 02:23:06,VALID,917.839,VALID,0.0,VALID,92.303,VALID,-0.014,VALID,19.672,VALID,1.0,VALID,1.105,
2018-08-23, 02:24:06,VALID,917.803,VALID,0.0,VALID,92.34,VALID,-0.01,VALID,19.638,VALID,34.0,VALID,1.121,
2018-08-23, 02:25:06,VALID,917.797,VALID,0.0,VALID,91.927,VALID,-0.008,VALID,19.661,VALID,243.0,VALID,1.4,
2018-08-23, 02:26:06,VALID,917.707,VALID,0.0,VALID,92.021,VALID,-0.005,VALID,19.689,VALID,8.0,VALID,1.168,
2018-08-23, 02:27:06,VALID,917.651,VALID,0.0,VALID,92.181,VALID,-0.036,VALID,19.686,VALID,2.0,VALID,1.261,
2018-08-23, 02:28:06,VALID,917.605,VALID,0.0,VALID,92.328,VALID,-0.009,VALID,19.644,VALID,26.0,VALID,1.586,
2018-08-23, 02:29:06,VALID,917.543,VALID,0.0,VALID,92.58,VALID,-0.021,VALID,19.588,VALID,324.0,VALID,1.601,
2018-08-23, 02:30:06,VALID,917.511,VALID,0.0,VALID,93.012,VALID,-0.026,VALID,19.569,VALID,331.0,VALID,0.876,
2018-08-23, 02:31:06,VALID,917.466,VALID,0.0,VALID,92.981,VALID,-0.017,VALID,19.527,VALID,12.0,VALID,1.581,
2018-08-23, 02:32:06,VALID,917.469,VALID,0.0,VALID,93.17,VALID,-0.009,VALID,19.49,VALID,11.0,VALID,1.1,
2018-08-23, 02:33:06,VALID,917.458,VALID,0.0,VALID,93.472,VALID,-0.025,VALID,19.457,VALID,24.0,VALID,0.477,
2018-08-23, 02:34:06,VALID,917.469,VALID,0.0,VALID,93.642,VALID,-0.015,VALID,19.415,VALID,14.0,VALID,0.98,
2018-08-23, 02:35:06,VALID,917.423,VALID,0.0,VALID,93.893,VALID,-0.025,VALID,19.365,VALID,51.0,VALID,0.759,
2018-08-23, 02:36:06,VALID,917.441,VALID,0.0,VALID,93.822,VALID,-0.009,VALID,19.336,VALID,357.0,VALID,0.883,
2018-08-23, 02:37:06,VALID,917.428,VALID,0.0,VALID,93.738,VALID,-0.042,VALID,19.364,VALID,300.0,VALID,0.182,
2018-08-23, 02:38:06,VALID,917.433,VALID,0.0,VALID,93.74,VALID,-0.028,VALID,19.375,VALID,56.0,VALID,0.329,
2018-08-23, 02:39:06,VALID,917.425,VALID,0.0,VALID,93.795,VALID,-0.013,VALID,19.357,INVALID,360.0,VALID,0.311,
2018-08-23, 02:40:06,VALID,917.395,VALID,0.0,VALID,93.892,VALID,-0.017,VALID,19.326,VALID,19.0,VALID,0.911,
2018-08-23, 02:41:06,VALID,917.374,VALID,0.0,VALID,94.018,VALID,-0.014,VALID,19.306,VALID,20.0,VALID,1.07,
2018-08-23, 02:42:06,VALID,917.364,VALID,0.0,VALID,93.824,VALID,-0.022,VALID,19.318,VALID,116.0,VALID,1.2,
2018-08-23, 02:43:06,VALID,917.326,VALID,0.0,VALID,93.804,VALID,-0.019,VALID,19.334,VALID,69.0,VALID,1.129,
2018-08-23, 02:44:06,VALID,917.274,VALID,0.0,VALID,93.758,VALID,-0.03,VALID,19.337,VALID,8.0,VALID,1.697,
2018-08-23, 02:45:06,VALID,917.242,VALID,0.0,VALID,93.651,VALID,-0.006,VALID,19.353,VALID,2.0,VALID,0.95,
2018-08-23, 02:46:06,VALID,917.243,VALID,0.0,VALID,93.632,VALID,-0.023,VALID,19.367,VALID,33.0,VALID,0.659,
2018-08-23, 02:47:06,VALID,917.202,VALID,0.0,VALID,93.936,VALID,-0.026,VALID,19.336,VALID,324.0,VALID,0.467,
2018-08-23, 02:48:06,VALID,917.191,VALID,0.0,VALID,93.826,VALID,-0.019,VALID,19.33,VALID,344.0,VALID,1.709,
2018-08-23, 02:49:06,VALID,917.167,VALID,0.0,VALID,93.519,VALID,-0.004,VALID,19.368,VALID,12.0,VALID,1.542,
2018-08-23, 02:50:06,VALID,917.181,VALID,0.0,VALID,93.449,VALID,-0.018,VALID,19.387,VALID,316.0,VALID,0.699,
2018-08-23, 02:51:06,VALID,917.118,VALID,0.0,VALID,93.415,VALID,-0.01,VALID,19.375,VALID,14.0,VALID,0.809,
2018-08-23, 02:52:06,VALID,917.126,VALID,0.0,VALID,93.147,VALID,0.007,VALID,19.385,VALID,14.0,VALID,1.18,
2018-08-23, 02:53:06,VALID,917.169,VALID,0.0,VALID,93.225,VALID,0.012,VALID,19.386,VALID,86.0,VALID,0.616,
2018-08-23, 02:54:06,VALID,917.16,VALID,0.0,VALID,93.118,VALID,0.015,VALID,19.38,VALID,103.0,VALID,0.858,
2018-08-23, 02:55:06,VALID,917.138,VALID,0.0,VALID,92.994,VALID,0.015,VALID,19.384,VALID,26.0,VALID,0.575,
2018-08-23, 02:56:06,VALID,917.094,VALID,0.0,VALID,92.866,VALID,0.014,VALID,19.376,VALID,2.0,VALID,1.054,
2018-08-23, 02:57:06,VALID,917.063,VALID,0.0,VALID,92.994,VALID,0.029,VALID,19.35,VALID,295.0,VALID,0.908,
2018-08-23, 02:58:06,VALID,917.081,VALID,0.0,VALID,92.932,VALID,0.019,VALID,19.346,VALID,151.0,VALID,0.323,
2018-08-23, 02:59:06,VALID,917.102,VALID,0.0,VALID,92.865,VALID,0.022,VALID,19.357,VALID,141.0,VALID,0.721,
2018-08-23, 03:00:06,VALID,917.109,VALID,0.0,VALID,92.757,VALID,0.026,VALID,19.369,VALID,335.0,VALID,1.352,
2018-08-23, 03:01:06,VALID,917.101,VALID,0.0,VALID,92.673,VALID,0.038,VALID,19.385,VALID,307.0,VALID,1.28,
2018-08-23, 03:02:06,VALID,917.147,VALID,0.0,VALID,92.383,VALID,0.008,VALID,19.425,VALID,85.0,VALID,0.879,
2018-08-23, 03:03:06,VALID,917.205,VALID,0.0,VALID,92.272,VALID,0.01,VALID,19.428,VALID,100.0,VALID,0.385,
2018-08-23, 03:04:06,VALID,917.209,VALID,0.0,VALID,92.388,VALID,0.011,VALID,19.421,VALID,53.0,VALID,1.237,
2018-08-23, 03:05:06,VALID,917.225,VALID,0.0,VALID,92.554,VALID,0.021,VALID,19.401,VALID,104.0,VALID,0.552,
2018-08-23, 03:06:06,VALID,917.209,VALID,0.0,VALID,92.613,VALID,0.021,VALID,19.392,VALID,70.0,VALID,1.163,
2018-08-23, 03:07:06,VALID,917.232,VALID,0.0,VALID,92.567,VALID,0.019,VALID,19.393,VALID,53.0,VALID,0.539,
2018-08-23, 03:08:06,VALID,917.248,VALID,0.0,VALID,92.538,VALID,0.015,VALID,19.395,VALID,55.0,VALID,0.177,
2018-08-23, 03:09:06,VALID,917.211,VALID,0.0,VALID,92.55,VALID,0.029,VALID,19.402,VALID,76.0,VALID,0.489,
2018-08-23, 03:10:06,VALID,917.235,VALID,0.0,VALID,92.583,VALID,0.026,VALID,19.4,VALID,73.0,VALID,0.532,
2018-08-23, 03:11:06,VALID,917.253,VALID,0.0,VALID,92.622,VALID,0.014,VALID,19.405,VALID,88.0,VALID,0.854,
2018-08-23, 03:12:06,VALID,917.25,VALID,0.0,VALID,92.483,VALID,0.019,VALID,19.419,VALID,43.0,VALID,0.492,
2018-08-23, 03:13:06,VALID,917.241,VALID,0.0,VALID,92.546,VALID,0.016,VALID,19.409,VALID,37.0,VALID,0.521,
2018-08-23, 03:14:06,VALID,917.225,VALID,0.0,VALID,92.752,VALID,0.032,VALID,19.389,INVALID,360.0,VALID,0.0,
2018-08-23, 03:15:06,VALID,917.183,VALID,0.0,VALID,92.927,VALID,0.009,VALID,19.357,INVALID,360.0,VALID,0.099,
2018-08-23, 03:16:06,VALID,917.191,VALID,0.0,VALID,93.241,VALID,0.006,VALID,19.307,INVALID,360.0,VALID,0.0,
2018-08-23, 03:17:06,VALID,917.19,VALID,0.0,VALID,93.29,VALID,0.004,VALID,19.284,INVALID,360.0,VALID,0.0,
2018-08-23, 03:18:06,VALID,917.155,VALID,0.0,VALID,93.251,VALID,0.017,VALID,19.288,INVALID,360.0,VALID,0.0,
2018-08-23, 03:19:06,VALID,917.169,VALID,0.0,VALID,93.235,VALID,0.019,VALID,19.288,INVALID,360.0,VALID,0.0,
2018-08-23, 03:20:06,VALID,917.179,VALID,0.0,VALID,93.312,VALID,0.013,VALID,19.264,INVALID,360.0,VALID,0.0,
2018-08-23, 03:21:06,VALID,917.184,VALID,0.0,VALID,93.302,VALID,0.022,VALID,19.258,INVALID,360.0,VALID,0.0,
2018-08-23, 03:22:06,VALID,917.2,VALID,0.0,VALID,93.357,VALID,0.087,VALID,19.249,INVALID,360.0,VALID,0.0,
2018-08-23, 03:23:06,VALID,917.207,VALID,0.0,VALID,93.306,VALID,0.091,VALID,19.254,INVALID,360.0,VALID,0.0,
2018-08-23, 03:24:06,VALID,917.195,VALID,0.0,VALID,93.19,VALID,0.11,VALID,19.255,INVALID,360.0,VALID,0.0,
2018-08-23, 03:25:06,VALID,917.227,VALID,0.0,VALID,93.097,VALID,0.089,VALID,19.261,INVALID,360.0,VALID,0.0,
2018-08-23, 03:26:06,VALID,917.165,VALID,0.0,VALID,93.142,VALID,0.08,VALID,19.25,VALID,334.0,VALID,1.524,
2018-08-23, 03:27:06,VALID,917.174,VALID,0.0,VALID,92.873,VALID,0.096,VALID,19.295,VALID,282.0,VALID,1.255,
2018-08-23, 03:28:06,VALID,917.206,VALID,0.0,VALID,92.476,VALID,0.094,VALID,19.356,VALID,13.0,VALID,1.02,
2018-08-23, 03:29:06,VALID,917.231,VALID,0.0,VALID,92.679,VALID,0.093,VALID,19.316,VALID,40.0,VALID,0.383,
2018-08-23, 03:30:06,VALID,917.248,VALID,0.0,VALID,92.92,VALID,0.089,VALID,19.268,INVALID,360.0,VALID,0.0,
2018-08-23, 03:31:06,VALID,917.231,VALID,0.0,VALID,93.133,VALID,0.093,VALID,19.196,INVALID,360.0,VALID,0.0,
2018-08-23, 03:32:06,VALID,917.174,VALID,0.0,VALID,93.549,VALID,0.085,VALID,19.143,INVALID,360.0,VALID,0.0,
2018-08-23, 03:33:06,VALID,917.203,VALID,0.0,VALID,93.668,VALID,0.096,VALID,19.113,INVALID,360.0,VALID,0.0,
2018-08-23, 03:34:06,VALID,917.169,VALID,0.0,VALID,93.744,VALID,0.08,VALID,19.109,INVALID,360.0,VALID,0.0,
2018-08-23, 03:35:06,VALID,917.147,VALID,0.0,VALID,93.702,VALID,0.089,VALID,19.116,INVALID,360.0,VALID,0.0,
2018-08-23, 03:36:06,VALID,917.149,VALID,0.0,VALID,93.711,VALID,0.047,VALID,19.119,INVALID,360.0,VALID,0.0,
2018-08-23, 03:37:06,VALID,917.135,VALID,0.0,VALID,93.784,VALID,-0.061,VALID,19.11,INVALID,360.0,VALID,0.0,
2018-08-23, 03:38:06,VALID,917.138,VALID,0.0,VALID,93.786,VALID,-0.054,VALID,19.128,INVALID,360.0,VALID,0.0,
2018-08-23, 03:39:06,VALID,917.112,VALID,0.0,VALID,93.66,VALID,-0.042,VALID,19.139,INVALID,360.0,VALID,0.0,